FW7234 Weather Reports


time (UTC)temp
C
wind
direction
speed
KPH
gust
KPH
rain 1hr
cm
rain 24hr
cm
rain mn
cm
humidity
%
barometer
mb
20260506215932 39 104 6.4 27.4 0.00 0.00 0.00 50 1002.5
20260506212926 40 93 1.6 14.5 0.00 0.00 0.00 45 1002.7
20260506205928 40 216 1.6 8.0 0.00 0.00 0.00 43 1002.8
20260506202940 40 76 3.2 11.3 0.00 0.00 0.00 45 1003.2
20260506195924 39 262 4.8 11.3 0.00 0.00 0.00 49 1003.7
20260506192930 38 31 4.8 16.1 0.00 0.00 0.00 51 1004.3
20260506191418 38 73 8.0 14.5 0.00 0.00 0.00 53 1004.6
20260506185912 37 251 4.8 12.9 0.00 0.00 0.00 56 1004.9
20260506182935 36 68 11.3 16.1 0.00 0.00 0.00 59 1005.6
20260506175933 35 10 3.2 16.1 0.00 0.00 0.00 62 1005.9
20260506174429 35 274 3.2 11.3 0.00 0.00 0.00 64 1006.1
20260506165930 33 12 3.2 12.9 0.00 0.00 0.00 70 1006.5
20260506164415 32 347 0.0 12.9 0.00 0.00 0.00 71 1006.7
20260506155932 31 239 1.6 8.0 0.00 0.00 0.00 75 1007.1
20260506154425 31 221 1.6 9.7 0.00 0.00 0.00 76 1007.1
20260506152921 30 73 4.8 9.7 0.00 0.00 0.00 78 1007.1
20260506145936 28 51 1.6 8.0 0.00 0.00 0.00 82 1007.0
20260506144422 28 21 0.0 9.7 0.00 0.00 0.00 84 1007.1
20260506142925 27 90 3.2 6.4 0.00 0.00 0.00 85 1007.0
20260506135924 27 78 4.8 9.7 0.00 0.00 0.00 87 1006.9
20260506134416 27 81 4.8 11.3 0.00 0.00 0.00 87 1006.9
20260506131420 27 102 3.2 9.7 0.00 0.00 0.00 87 1006.7
20260506124421 27 87 3.2 8.0 0.00 0.00 0.00 87 1006.7
20260506121433 27 92 3.2 6.4 0.00 0.00 0.00 87 1006.4
20260506114436 26 97 1.6 9.7 0.00 0.00 0.00 87 1006.4
20260506112930 26 92 3.2 6.4 0.00 0.00 0.00 87 1006.4
20260506111419 26 75 3.2 9.7 0.00 0.00 0.00 87 1006.4
20260506104424 26 100 1.6 4.8 0.00 0.00 0.00 87 1006.2
20260506101425 26 68 4.8 12.9 0.00 0.00 0.00 86 1006.0
20260506094432 27 83 6.4 12.9 0.00 0.00 0.00 86 1006.1
20260506092013 27 94 3.2 12.9 0.00 0.00 0.00 86 1006.0
20260506085924 26 102 4.8 12.9 0.00 0.00 0.00 86 1006.1
20260506084420 26 91 4.8 9.7 0.00 0.00 0.00 86 1006.2
20260506081432 26 75 3.2 6.4 0.00 0.00 0.00 86 1006.2
20260506072920 26 89 4.8 12.9 0.00 0.00 0.00 86 1006.3
20260506071414 26 95 4.8 12.9 0.00 0.00 0.00 86 1006.5
20260506061428 26 79 1.6 11.3 0.00 0.00 0.00 87 1007.5
20260506042929 26 67 6.4 19.3 0.00 0.00 0.00 85 1007.4
20260506035932 26 85 11.3 20.9 0.00 0.00 0.00 84 1006.5
20260506032939 27 89 8.0 16.1 0.00 0.00 0.00 83 1006.7
20260506031430 27 80 11.3 19.3 0.00 0.00 0.00 82 1006.6
20260506025929 27 94 6.4 19.3 0.00 0.00 0.00 81 1006.5
20260506022933 27 91 9.7 20.9 0.00 0.00 0.00 80 1005.6
20260506021429 27 110 9.7 20.9 0.00 0.00 0.00 79 1005.4
20260506015927 27 108 9.7 24.1 0.00 0.00 0.00 79 1005.2
20260506012937 28 52 11.3 19.3 0.00 0.00 0.00 77 1004.8
20260506005928 28 54 14.5 22.5 0.00 0.00 0.00 75 1004.4
20260506002936 30 93 6.4 25.7 0.00 0.00 0.00 71 1003.8
20260505235925 31 94 11.3 27.4 0.00 0.00 0.00 68 1003.7
20260505232938 32 80 8.0 19.3 0.00 0.00 0.00 66 1003.5
20260505225933 33 181 9.7 19.3 0.00 0.00 0.00 62 1003.1
20260505222943 34 73 12.9 24.1 0.00 0.00 0.00 61 1003.3